Location: Huntsville
(41.2590°N, 111.7678°W)
Time: 20:32:25
(UTC+00:00)

N. Korean satellite - Pass Details

Date: 09 December 2021
Orbit: 446 x 492 km, 97.3° (Epoch: 18 January)

Event Time Altitude Azimuth Distance (km) Brightness Sun altitude
Rises 00:23:14 0° 187° (S) 2,518 10.7 -5.0°
Reaches altitude 10° 00:25:26 10° 197° (SSW) 1,636 9.9 -5.4°
Maximum altitude 00:28:37 32° 263° (W) 827 8.6 -6.0°
Drops below altitude 10° 00:31:47 10° 328° (NNW) 1,623 9.3 -6.5°
Sets 00:33:58 0° 338° (NNW) 2,495 10.2 -6.9°
